GFSSW_con_mucape_036.txt.gz
CAPE
0 0 0 0 0 0 0 0 0 0 0 0 0 0 0 0 0 0 0 0 0 0 0 0 0 0 0 18 0 12 10 0 3 13 60 90 206 609 792 769 931 846 669 640 1558
0 0 0 0 0 0 0 0 0 0 0 0 0 0 0 0 0 0 0 0 0 0 0 0 0 0 60 53 10 0 0 4 2 0 35 156 492 577 953 1084 1074 939 864 1043 1501
0 0 0 0 0 0 0 0 0 0 0 0 0 0 0 0 0 0 0 0 0 0 0 0 0 54 40 47 78 94 0 1 13 5 10 118 451 402 975 1117 1029 957 1090 1020 1270
0 0 0 0 0 0 0 0 0 0 0 0 0 0 0 0 9 0 0 0 0 0 0 0 78 49 33 42 20 14 0 0 0 0 6 105 230 345 312 814 1122 1026 1126 1169 1146
0 0 0 0 0 0 0 0 0 0 0 0 0 0 0 0 0 0 0 0 0 0 3 88 94 50 44 38 110 8 0 20 0 0 0 143 130 511 546 517 1283 1175 1076 1191 1210
0 0 0 0 0 0 0 0 0 0 0 0 0 0 0 0 0 0 0 0 0 0 0 52 101 40 13 5 5 1 2 0 0 0 0 52 377 668 818 1226 1357 1244 1152 1135 1315
0 0 0 0 0 0 0 0 0 0 0 0 0 0 0 0 0 0 0 0 0 0 0 7 85 59 0 8 52 46 1 2 0 0 16 212 403 688 1027 1387 1364 1300 1284 1268 1226
0 0 0 0 0 0 0 0 0 0 0 0 0 0 0 0 0 0 0 0 0 0 0 0 0 0 96 2 1 1 0 0 1 0 2 0 288 718 1134 1358 1415 1447 1388 1379 1383
0 0 0 0 0 0 0 0 0 0 0 0 0 0 0 0 0 0 0 0 0 0 0 0 0 11 0 0 0 0 0 0 0 0 9 0 7 392 1410 1473 1471 1507 1535 1578 1518
0 0 0 0 0 0 0 0 0 0 0 0 0 0 0 0 0 0 0 0 0 0 0 0 0 0 0 0 0 0 0 0 0 3 0 0 57 241 811 1474 1558 1555 1664 1651 1563
0 0 0 0 0 0 0 0 0 0 0 0 0 0 0 0 0 0 0 0 0 0 0 0 0 0 0 0 0 0 0 0 0 0 9 0 0 219 243 1005 1368 1666 1727 1680 1559
0 0 0 0 0 0 0 0 0 0 0 0 0 0 0 0 0 0 0 0 0 0 0 0 0 0 0 0 0 0 0 0 0 0 0 0 0 0 303 756 1193 1477 1727 1706 1626
0 0 0 0 0 0 0 0 0 0 0 0 0 0 0 0 0 0 0 0 0 0 0 0 0 0 0 0 0 0 0 0 0 0 0 0 0 0 7 1008 1263 1538 1751 1705 1779
0 0 0 0 0 0 0 0 0 0 0 0 0 0 0 0 0 0 0 0 0 0 0 0 0 0 0 0 0 0 0 0 0 0 0 0 0 0 5 385 1432 1713 1927 1900 2062
0 0 0 0 0 0 0 0 0 0 0 0 0 0 0 0 0 0 0 0 0 0 0 0 0 0 0 0 0 0 0 0 0 0 0 0 0 0 78 822 1667 1952 1991 2194 2282
0 0 0 0 0 0 0 0 0 0 0 0 0 0 0 0 0 0 0 0 0 0 0 0 0 0 0 0 0 0 0 0 0 0 0 0 0 0 1 113 926 2102 2191 2218 2412
0 0 0 0 0 0 0 0 0 0 0 0 0 0 0 0 0 0 0 0 0 0 0 0 0 0 0 0 0 0 0 0 0 0 4 0 7 4 3 139 560 460 2142 2310 2360
0 0 0 0 0 0 0 0 0 0 0 0 0 0 0 0 0 0 0 0 0 0 0 0 0 0 0 0 0 0 0 0 0 0 0 8 2 14 35 77 350 507 1350 2470 2417
0 0 0 0 0 0 0 0 0 0 0 0 0 0 0 0 0 0 0 0 0 0 0 0 0 0 0 0 0 0 0 0 0 0 0 0 43 103 217 308 434 931 2117 2523 2435
0 0 0 0 0 0 0 0 0 0 0 0 0 0 0 0 0 0 0 0 0 0 0 0 0 2 21 2 0 0 0 0 0 0 0 4 86 98 120 296 415 852 1983 2345 2317
0 0 0 0 0 0 0 0 0 0 0 0 0 0 0 0 0 0 0 0 0 0 0 0 0 0 0 0 0 0 0 0 0 0 0 0 32 164 121 238 247 610 1399 1965 1955
0 0 0 0 0 0 0 0 0 0 0 0 0 0 0 0 0 0 0 0 0 0 0 0 0 0 0 0 0 0 0 0 0 0 0 0 38 181 116 330 151 431 1101 940 961
0 0 0 0 0 0 0 0 0 0 0 0 0 0 0 0 0 0 0 0 0 0 0 0 0 2 2 0 0 0 3 0 0 0 0 0 25 244 378 416 275 167 114 514 650
0 0 0 0 0 0 0 0 0 0 0 0 0 0 0 0 0 0 0 0 0 0 91 1 0 0 3 12 0 0 7 2 7 0 0 0 178 240 361 357 255 158 76 205 1100
0 0 0 0 0 0 0 0 0 0 0 0 0 2 0 0 0 0 0 0 0 0 0 0 0 0 0 15 9 12 24 22 8 18 9 1 53 221 351 303 98 38 30 320 1509
0 0 0 0 0 0 0 0 0 0 0 0 0 0 0 7 0 3 25 49 27 61 1 0 2 0 12 24 13 7 17 11 18 56 30 40 317 149 155 55 25 69 180 105 1342
0 0 0 0 0 0 0 0 0 0 0 0 0 0 2 8 6 2 9 68 70 84 157 276 26 0 11 19 35 0 15 76 241 505 188 161 166 257 177 535 441 162 178 387 1048

GFSSW_con_mucape_042.txt.gz
CAPE
0 0 0 0 0 0 0 0 0 0 0 0 0 0 0 0 0 0 0 0 0 0 0 0 71 46 50 30 24 31 11 92 140 66 7 175 592 675 788 749 861 808 876 873 1094
0 0 0 0 0 0 0 0 0 0 0 0 0 0 0 0 0 0 0 0 0 0 0 0 68 43 15 16 16 0 0 11 59 70 68 288 631 793 899 797 879 1335 932 1226 1498
0 0 0 0 0 0 0 0 0 0 0 0 0 0 0 0 0 0 0 0 0 0 0 0 74 64 60 27 2 0 0 0 2 120 111 454 810 831 814 903 908 1211 1243 1510 1425
0 0 0 0 0 0 0 0 0 0 0 0 0 0 0 0 0 0 0 0 0 0 0 0 64 99 74 24 0 0 0 0 0 0 213 602 720 983 883 616 965 1392 1450 1456 1376
0 0 0 0 0 0 0 0 0 0 0 0 0 0 0 0 0 0 0 0 0 0 0 0 73 127 77 15 2 1 0 0 0 0 122 447 693 812 803 942 1235 1683 1577 1464 1359
0 0 0 0 0 0 0 0 0 0 0 0 0 0 0 0 0 0 0 0 0 0 0 0 97 104 49 36 19 0 0 0 0 0 1 188 513 599 795 1079 1460 1727 1588 1518 1419
0 0 0 0 0 0 0 0 0 0 0 0 0 0 0 0 0 0 0 0 0 0 0 0 113 95 51 42 44 0 0 0 0 0 16 217 364 444 855 1137 1318 1527 1524 1555 1509
0 0 0 0 0 0 0 0 0 0 0 0 0 0 0 0 0 0 0 0 0 0 0 1 145 91 63 43 31 0 0 0 0 0 7 179 70 457 1116 1220 1279 1309 1328 1431 1498
0 0 0 0 0 0 0 0 0 0 0 0 0 0 0 0 0 0 0 0 0 0 0 47 135 121 63 8 0 0 0 0 0 0 0 190 0 291 1256 1261 1288 1340 1283 1327 1328
0 0 0 0 0 0 0 0 0 0 0 0 0 0 0 0 0 0 0 0 0 0 0 19 146 120 64 2 0 0 0 0 0 0 0 6 6 233 1317 1374 1340 1343 1306 1257 1328
0 0 0 0 0 0 0 0 0 0 0 0 0 0 0 0 0 0 0 0 0 0 0 0 0 0 20 0 0 0 0 0 0 0 0 0 7 0 996 1403 1392 1407 1404 1373 1364
0 0 0 0 0 0 0 0 0 0 0 0 0 0 0 0 0 0 0 0 0 0 0 0 0 0 0 0 0 0 0 0 0 0 6 0 0 35 969 1234 1313 1418 1467 1480 1517
0 0 0 0 0 0 0 0 0 0 0 0 0 0 0 0 0 0 0 0 0 0 0 0 0 0 0 0 0 0 0 0 0 0 0 0 0 0 136 1085 1165 1413 1489 1484 1588
0 0 0 0 0 0 0 0 0 0 0 0 0 0 0 0 0 0 0 0 0 0 0 0 0 0 0 0 0 0 0 0 0 0 0 0 0 0 0 1 367 883 1508 1568 1591
0 0 0 0 0 0 0 0 0 0 0 0 0 0 0 0 0 0 0 0 0 0 0 0 0 0 0 0 0 0 0 0 0 0 0 0 0 0 3 135 751 1127 1274 1473 1610
0 0 0 0 0 0 0 0 0 0 0 0 0 0 0 0 0 0 0 0 0 0 0 0 0 0 0 0 0 0 0 0 0 0 0 0 0 0 0 23 183 1331 1398 1467 1633
0 0 0 0 0 0 0 0 0 0 0 0 0 0 0 0 0 0 0 0 0 0 0 0 0 0 0 0 0 0 0 0 0 0 0 0 0 0 0 53 28 351 1638 1578 1628
0 0 0 0 0 0 0 0 0 0 0 0 0 0 0 0 0 0 0 0 0 0 0 0 0 0 0 0 0 0 0 0 0 0 0 0 0 0 89 282 309 921 1623 1815 1774
0 0 0 0 0 0 0 0 0 0 0 0 0 0 0 0 0 0 0 0 0 0 0 0 0 0 0 0 0 0 0 0 0 0 0 0 0 3 248 710 913 1281 1906 2057 2038
0 0 0 0 0 0 0 0 0 0 0 0 0 0 0 0 0 0 0 0 0 0 0 0 0 0 0 0 0 0 0 0 0 0 0 0 0 0 257 551 760 1725 1673 2042 2153
0 0 0 0 0 0 0 0 0 0 0 0 0 0 0 0 0 0 0 0 0 0 0 0 0 0 0 0 0 0 0 0 0 0 0 0 0 0 116 324 459 814 1398 1836 2000
0 0 0 0 0 0 0 0 0 0 0 0 0 0 0 0 0 0 0 0 0 0 0 0 0 0 0 0 2 0 0 0 0 0 0 0 0 0 72 259 175 497 1181 1712 2039
0 0 0 0 0 0 0 0 0 0 0 0 0 0 0 0 0 0 0 0 0 0 0 0 0 0 6 0 9 0 0 0 0 0 0 0 0 0 90 99 184 343 1157 1433 1627
0 0 0 0 0 0 0 0 0 0 0 0 0 0 0 0 0 0 0 0 0 0 67 0 0 0 0 0 0 0 0 0 0 0 0 0 0 0 19 99 75 108 319 872 1243
0 0 0 0 0 0 0 0 0 0 0 0 0 0 0 0 0 0 0 0 0 0 0 0 0 0 0 6 0 0 0 0 0 0 0 0 0 5 0 80 166 168 86 156 216
0 0 0 0 0 0 0 0 0 0 0 0 0 0 0 0 0 0 0 0 0 9 0 0 0 0 0 38 37 22 4 0 1 2 6 6 2 0 36 117 234 191 219 113 113
0 0 0 0 0 0 0 0 0 0 0 0 0 0 0 0 0 0 0 0 3 6 126 15 14 1 0 4 70 54 21 38 213 67 11 0 4 44 100 260 322 226 87 90 47

GFSSW_con_mucape_048.txt.gz
CAPE
0 0 0 0 0 0 0 0 0 0 0 0 0 0 0 0 0 0 0 0 0 0 0 0 3 31 52 67 142 183 303 177 94 131 54 402 511 788 939 950 1126 1103 749 1134 2098
0 0 0 0 0 0 0 0 0 0 0 0 0 0 0 0 0 0 0 0 0 0 0 0 16 25 34 44 183 185 289 75 87 106 185 412 478 909 944 944 1495 1287 1299 1843 1922
0 0 0 0 0 0 0 0 0 0 0 0 0 0 0 0 0 0 0 0 0 0 0 0 0 39 30 18 36 142 181 46 18 102 216 477 631 863 799 853 949 1025 1526 1770 1749
0 0 0 0 0 0 0 0 0 0 0 0 0 0 0 0 0 0 0 0 0 0 0 0 51 23 1 7 6 60 66 86 26 53 234 469 757 822 942 934 983 1061 1376 1698 1646
0 0 0 0 0 0 0 0 0 0 0 0 0 0 0 0 0 0 0 0 0 0 0 0 5 19 35 50 54 56 3 11 17 6 171 640 872 814 1057 1398 1260 1215 1441 1551 1512
0 0 0 0 0 0 0 0 0 0 0 0 0 0 0 0 0 0 0 0 0 0 0 0 0 94 28 37 46 0 0 0 0 2 212 664 814 1060 1220 1664 1439 1445 1546 1510 1423
0 0 0 0 0 0 0 0 0 0 0 0 0 0 0 0 0 0 0 0 0 0 0 0 0 94 90 6 44 0 0 0 0 8 81 440 681 895 1381 1755 1612 1460 1642 1580 1663
0 0 0 0 0 0 0 0 0 0 0 0 0 0 0 0 0 0 0 0 0 0 0 0 0 57 95 22 38 45 16 92 0 0 173 328 214 217 1461 1766 1765 1633 1537 1683 1921
0 0 0 0 0 0 0 0 0 0 0 0 0 0 0 0 0 0 0 0 0 0 0 0 0 22 46 14 52 95 177 0 0 0 0 253 245 315 1380 1607 1898 1917 1754 1904 2107
0 0 0 0 0 0 0 0 0 0 0 0 0 0 0 0 0 0 0 0 0 0 0 0 0 3 0 29 147 231 55 0 0 0 0 27 274 283 1269 1445 1743 2082 2099 2094 2288
0 0 0 0 0 0 0 0 0 0 0 0 0 0 0 0 0 0 0 0 0 0 0 0 0 0 17 8 0 18 1 0 0 0 0 92 152 169 929 1521 1709 2133 2335 2323 2285
0 0 0 0 0 0 0 0 0 0 0 0 0 0 0 0 0 0 0 0 0 0 0 0 0 0 0 0 5 20 18 0 0 0 7 49 223 166 445 1386 1583 1999 2325 2520 2450
0 0 0 0 0 0 0 0 0 0 0 0 0 0 0 0 0 0 0 0 0 0 0 0 0 0 25 66 21 0 1 0 0 0 0 0 110 85 455 1236 1317 1456 2013 2431 2457
0 0 0 0 0 0 0 0 0 0 0 0 0 0 0 0 0 0 0 0 0 0 0 0 0 0 0 0 0 0 0 0 0 0 13 0 50 44 12 57 647 1070 1294 1982 2434
0 0 0 0 0 0 0 0 0 0 0 0 0 0 0 0 0 0 0 0 0 0 0 0 0 0 0 0 0 0 0 0 0 0 0 0 0 1 60 278 526 1234 1183 1586 2287
0 0 0 0 0 0 0 0 0 0 0 0 0 0 0 0 0 0 0 0 0 0 0 0 0 0 0 0 0 0 0 0 0 0 0 12 0 0 97 363 502 816 2189 1810 2175
0 0 0 0 0 0 0 0 0 0 0 0 0 0 0 0 0 0 0 0 0 0 0 0 0 0 0 0 0 0 0 0 0 0 0 66 11 4 232 391 833 1109 1329 2412 2409
0 0 0 0 0 0 0 0 0 0 0 0 0 0 0 0 0 0 0 0 0 0 0 0 0 0 0 0 0 0 0 5 21 6 1 32 0 74 253 456 1371 1994 1507 2914 2949
0 0 0 0 0 0 0 0 0 0 0 0 0 0 0 0 0 0 0 0 0 0 0 0 0 0 0 0 13 6 5 4 14 0 0 2 20 3 424 1037 1590 2188 3043 3293 3319
0 0 0 0 0 0 0 0 0 0 0 0 0 0 0 0 0 0 0 0 0 0 0 0 0 0 0 0 0 32 19 21 18 19 41 50 21 61 91 671 1713 2268 3129 3538 3520
0 0 0 0 0 0 0 0 0 0 0 0 0 0 0 0 0 0 0 0 0 0 0 0 0 0 0 8 41 25 47 45 70 103 145 91 87 98 240 1142 1961 2372 2515 2827 3109
0 0 0 0 0 0 0 0 0 0 0 0 0 0 0 0 0 0 0 0 0 0 0 0 0 0 0 0 1 45 94 97 102 286 61 183 123 130 438 1290 1364 1933 2186 2259 2853
0 0 0 0 0 0 0 0 0 0 0 0 0 0 0 0 0 0 0 0 0 0 0 0 0 25 4 1 8 30 47 137 193 519 183 98 188 658 974 1128 1170 1864 1845 1947 2216
0 0 0 0 0 0 0 0 0 0 0 0 0 0 0 0 0 0 0 0 0 0 0 0 0 6 30 15 24 209 135 26 304 181 296 123 243 208 525 909 1315 1340 1405 1256 1546
0 0 0 0 0 0 0 0 0 0 0 0 0 0 0 0 0 0 0 2 7 2 0 0 3 13 0 1 50 181 171 12 217 267 282 146 119 831 1180 1187 1383 1070 890 865 1370
0 0 0 0 0 0 0 0 0 0 0 0 0 0 0 0 0 0 0 43 56 103 32 0 72 20 0 0 0 11 99 102 139 252 289 200 421 939 936 1046 1113 1024 884 996 1150
0 0 0 0 0 0 0 0 0 0 0 0 0 0 0 0 0 0 0 28 36 347 340 128 85 260 1 5 0 5 43 142 213 253 238 293 1077 949 1262 1147 1156 1017 957 976 948

GFSSW_con_mucape_051.txt.gz
CAPE
0 0 0 0 0 0 0 0 0 0 0 0 0 0 0 0 0 0 0 0 0 0 0 0 7 24 29 219 26 134 8 166 150 35 169 280 83 197 271 421 447 492 546 1193 1520
0 0 0 0 0 0 0 0 0 0 0 0 0 0 0 0 0 0 0 0 0 0 0 0 1 44 20 13 47 224 12 97 70 86 133 233 202 447 233 708 682 676 1317 1515 1667
0 0 0 0 0 0 0 0 0 0 0 0 0 0 0 0 0 0 0 0 0 0 0 0 0 59 0 28 216 251 105 23 0 68 206 260 359 461 506 475 542 745 1269 1425 1513
0 0 0 0 0 0 0 0 0 0 0 0 0 0 0 0 0 0 0 0 0 0 0 0 0 41 0 155 94 199 49 11 1 0 131 362 326 447 506 570 716 841 1233 1344 1421
0 0 0 0 0 0 0 0 0 0 0 0 0 0 0 0 0 0 0 0 0 0 0 0 0 3 37 155 103 138 61 0 0 0 112 271 396 588 694 693 825 952 1214 1342 1364
0 0 0 0 0 0 0 0 0 0 0 0 0 0 0 0 0 0 0 0 0 0 0 0 0 0 4 85 111 67 2 5 0 0 21 239 347 529 890 1147 874 1013 1251 1269 1282
0 0 0 0 0 0 0 0 0 0 0 0 0 0 0 0 0 0 0 0 0 0 0 0 0 0 88 97 48 25 0 0 0 2 38 104 201 466 1440 1354 1173 1147 1335 1332 1401
0 0 0 0 0 0 0 0 0 0 0 0 0 0 0 0 0 0 0 0 0 0 0 0 0 0 0 38 26 37 46 133 19 0 8 17 11 163 1101 1409 1521 1322 1406 1513 1602
0 0 0 0 0 0 0 0 0 0 0 0 0 0 0 0 0 0 0 0 0 0 0 0 0 0 15 64 138 73 68 50 53 0 4 11 23 246 715 1258 1664 1629 1574 1574 1885
0 0 0 0 0 0 0 0 0 0 0 0 0 0 0 0 0 0 0 0 0 0 0 0 0 0 0 132 253 160 204 179 24 0 0 0 52 157 226 734 1414 1874 1787 1697 2060
0 0 0 0 0 0 0 0 0 0 0 0 0 0 0 0 0 0 0 0 0 0 0 0 0 0 2 33 87 43 40 84 8 0 0 19 160 248 277 421 907 1757 2095 1943 2120
0 0 0 0 0 0 0 0 0 0 0 0 0 0 0 0 0 0 0 0 0 0 0 0 0 0 0 13 52 50 75 50 49 0 0 172 166 192 163 360 625 1304 1956 2215 2156
0 0 0 0 0 0 0 0 0 0 0 0 0 0 0 0 0 0 0 0 0 0 0 0 0 0 0 3 19 16 93 141 59 23 0 35 86 264 207 254 610 700 1326 2055 2316
0 0 0 0 0 0 0 0 0 0 0 0 0 0 0 0 0 0 0 0 0 0 0 0 0 0 0 0 0 43 60 21 1 3 64 71 139 266 343 145 164 416 872 1770 2337
0 0 0 0 0 0 0 0 0 0 0 0 0 0 0 0 0 0 0 0 0 0 0 0 0 0 0 0 0 0 0 0 0 4 43 135 114 298 187 67 287 703 1202 1394 2266
0 0 0 0 0 0 0 0 0 0 0 0 0 0 0 0 0 0 0 0 0 0 0 0 0 0 0 0 0 0 0 0 1 15 59 92 108 182 242 407 291 1054 1597 1650 2162
0 0 0 0 0 0 0 0 0 0 0 0 0 0 0 0 0 0 0 0 0 0 0 0 0 0 0 0 0 0 2 61 65 67 62 137 103 102 321 408 379 834 1961 1893 2207
0 0 0 0 0 0 0 0 0 0 0 0 0 0 0 0 0 0 0 0 0 0 0 0 0 0 0 0 0 0 1 73 182 235 176 149 29 63 243 316 952 1182 1369 2079 2124
0 0 0 0 0 0 0 0 0 0 0 0 0 0 0 0 0 0 0 0 0 0 0 0 0 0 0 0 0 5 5 14 89 127 181 141 127 249 142 312 1083 1710 2284 2266 2537
0 0 0 0 0 0 0 0 0 0 0 0 0 0 0 0 0 0 0 0 0 0 0 0 1 0 0 0 0 22 83 45 88 111 261 197 143 411 249 412 1379 2312 2934 3039 3022
0 0 0 0 0 0 0 0 0 0 0 0 0 0 0 0 0 0 0 0 0 0 0 0 8 45 0 3 27 15 119 132 201 290 297 121 253 342 375 1062 1650 2193 3017 2997 2615
0 0 0 0 0 0 0 0 0 0 0 0 0 0 0 0 0 0 0 0 0 0 0 0 2 27 29 12 0 63 128 82 213 300 276 198 182 39 731 1044 1498 2256 2540 2642 2712
0 0 0 0 0 0 0 0 0 0 0 0 0 0 0 0 0 0 0 0 0 0 0 0 0 26 24 22 20 47 177 240 300 363 346 482 231 405 728 1124 1366 2154 2219 2456 2889
0 0 0 0 0 0 0 0 0 0 0 0 0 0 0 0 0 0 0 0 0 0 121 0 0 2 89 86 118 121 40 43 109 284 387 252 413 345 341 1332 1708 2092 2258 2285 2712
0 0 0 0 0 0 0 0 0 0 0 0 0 0 0 0 0 0 0 2 7 0 0 0 0 0 7 15 60 120 120 157 74 143 374 414 95 774 981 1377 1822 1753 1733 1464 1891
0 0 0 0 0 0 0 0 0 0 0 0 0 0 0 0 0 9 12 36 84 41 29 0 1 17 4 2 0 30 154 257 191 183 205 174 403 33 1039 1588 1599 1579 1386 1498 1691
0 0 0 0 0 0 1 0 0 0 0 0 0 0 0 0 0 0 0 3 137 415 342 126 98 129 57 34 16 6 29 263 284 277 429 475 1202 453 1588 1680 1660 1524 1450 1452 1415